Torna al catalogo

FENGYUN 1C DEB

AttivoPO
NORAD 30301·DEBRIS·🇨🇳 China

Lanciato May 10, 1999 da Taiyuan Satellite Launch Center

Loading…

Prossimi Passaggi (prossime 24 ore)

TLE

AggiornatoSource: Space-Track

Epoca: Sep 14, 2026, 05:33 UTC

1 30301U 99025ZN  26257.23159936  .00012263  00000-0  23738-2 0  9991
2 30301  98.6445  64.0580 0058590 162.7112  11.3404 14.62370404 12327

Traccia FENGYUN 1C DEB in tempo reale con AllMySat

Download on the App Store